SCS-01 M (63993 NORAD) Tracking and Keplerian Element Data

This shows tracking and keplerian element data for the satellite.

Feedback or suggestion? Click here.




ElementValue
Catalog63993
NameSCS-01 M
Epoch Orbit3345
Epoch Day354.24295888
Epoch Year2025
RAAN66.3726
Inclination97.388
Eccentricity0.0010592
Argument of Perigee219.818
Mean Anonmoly140.2284
Mean Motion15.27949139
Decay Rate0.00018924
L11 63993U 25100M 25354.24295888 .00018924 00000+0 69444-3 0 9996
L22 63993 97.3880 66.3726 0010592 219.8180 140.2284 15.27949139 33459



Live tracking and technical data element details for SCS-01 M (NORAD 63993). SCS-01 M can be tracked NOW for your location showing map with azimuth and elevation plus other details from your city location.







IsCatalogInMostPopularTable: catalog: 63993, numindb: 5
Update: records affected: 1



GetName: 63993 SCS-01 M

Hit Count: updated at: Tue, 21 Apr 2026 19:36:28 GMT